Eagle, CO

2:02 PM MDT on August 20, 2017 (GMT -0600)
Eagle County Regional

Weather History for KEGE - October, 2012

Change the Weather History Date:

Wednesday, October 17, 2012

  Actual Average Record
Temperature  
Mean Temperature 44 °F -  
Max Temperature 53 °F 62 °F 77 °F (1950)
Min Temperature 35 °F 25 °F 8 °F (1948)
Degree Days  
Heating Degree Days 21    
Moisture  
Dew Point 22 °F    
Average Humidity 53    
Maximum Humidity 100    
Minimum Humidity 12    
Precipitation  
Precipitation 0.00 in - - ()
Sea Level Pressure  
Sea Level Pressure 29.99 in    
Wind  
Wind Speed 8 mph (SSW)    
Max Wind Speed 23 mph    
Max Gust Speed 31 mph    
Visibility 10 miles    
Events      
Averages and records for this station are not official NWS values.
T = Trace of Precipitation, MM = Missing Value Source: NWS Daily Summary

Daily Weather History Graph

Daily Weather History Graph

Search for Another Location

Airport or City:

Trip Planner

Search our weather history database for the weather conditions in past years. The results will help you decide how hot, cold, wet, or windy it might be!

Date:

Astronomy

Oct. 17, 2012 Rise Set
Actual Time 7:20 AM MDT 6:24 PM MDT
Civil Twilight 6:53 AM MDT 6:51 PM MDT
Nautical Twilight 6:21 AM MDT 7:23 PM MDT
Astronomical Twilight 5:50 AM MDT 7:54 PM MDT
Moon 9:57 AM MDT (10/17) 8:04 PM MDT (10/17)
Length of Visible Light 11h 58m
Length of Day
11h 04m
Waxing Crescent, 7% of the Moon is Illuminated
Oct 17
Waxing Crescent
Oct 21
First Quarter
Oct 29
Full
Nov 6
Last Quarter
Nov 13
New

Hourly Weather History & Observations

Time (MDT) Temp. Windchill Dew Point Humidity Pressure Visibility Wind Dir Wind Speed Gust Speed Precip Events Conditions
12:15 AM 44.6 °F 40.2 °F 42.8 °F 93% 29.90 in 10.0 mi East 8.1 mph - N/A   Overcast
12:35 AM 44.6 °F 39.7 °F 42.8 °F 93% 29.89 in 10.0 mi ENE 9.2 mph - N/A   Mostly Cloudy
12:55 AM 44.6 °F - 41.0 °F 87% 29.90 in 10.0 mi Calm Calm - N/A   Scattered Clouds
1:15 AM 44.6 °F 43.1 °F 41.0 °F 87% 29.90 in 10.0 mi NNE 3.5 mph - N/A   Scattered Clouds
1:35 AM 42.8 °F 40.1 °F 41.0 °F 93% 29.90 in 10.0 mi East 4.6 mph - N/A   Partly Cloudy
1:55 AM 42.8 °F 41.1 °F 41.0 °F 93% 29.89 in 10.0 mi East 3.5 mph - N/A   Partly Cloudy
2:15 AM 41.0 °F 39.0 °F 39.2 °F 93% 29.89 in 10.0 mi ESE 3.5 mph - N/A   Clear
2:35 AM 39.2 °F - 37.4 °F 93% 29.89 in 10.0 mi Calm Calm - N/A   Partly Cloudy
2:55 AM 39.2 °F - 39.2 °F 100% 29.90 in 10.0 mi Calm Calm - N/A   Clear
3:15 AM 39.2 °F 37.0 °F 39.2 °F 100% 29.89 in 10.0 mi ESE 3.5 mph - N/A   Clear
3:35 AM 37.4 °F 33.8 °F 37.4 °F 100% 29.88 in 10.0 mi NE 4.6 mph - N/A   Clear
3:55 AM 37.4 °F - 37.4 °F 100% 29.88 in 10.0 mi Calm Calm - N/A   Clear
4:15 AM 39.2 °F - 37.4 °F 93% 29.88 in 10.0 mi Calm Calm - N/A   Clear
4:35 AM 37.4 °F 31.4 °F 37.4 °F 100% 29.89 in 10.0 mi East 8.1 mph - N/A   Clear
4:55 AM 37.4 °F 30.8 °F 35.6 °F 93% 29.90 in 10.0 mi East 9.2 mph - N/A   Clear
5:15 AM 37.4 °F 32.1 °F 33.8 °F 87% 29.92 in 10.0 mi ENE 6.9 mph - N/A   Clear
5:35 AM 41.0 °F - 26.6 °F 57% 29.94 in 10.0 mi Calm Calm - N/A   Clear
5:55 AM 39.2 °F 35.9 °F 26.6 °F 61% 29.95 in 10.0 mi ENE 4.6 mph - N/A   Clear
6:15 AM 41.0 °F 38.0 °F 26.6 °F 57% 29.96 in 10.0 mi ENE 4.6 mph - N/A   Clear
6:35 AM 35.6 °F 31.7 °F 28.4 °F 75% 30.00 in 10.0 mi ENE 4.6 mph - N/A   Clear
6:50 AM 37.4 °F 31.4 °F 21.2 °F 52% 30.00 in 10.0 mi West 8.1 mph - N/A   Partly Cloudy
7:50 AM 39.2 °F 32.5 °F 15.8 °F 39% 30.04 in 10.0 mi SW 10.4 mph - N/A   Partly Cloudy
9:50 AM 41.0 °F 34.3 °F 10.4 °F 29% 30.10 in 10.0 mi West 11.5 mph - N/A   Partly Cloudy
10:50 AM 42.8 °F 37.5 °F 10.4 °F 27% 30.09 in 10.0 mi WNW 9.2 mph 16.1 mph N/A   Partly Cloudy
11:45 AM 44.6 °F 40.2 °F 10.4 °F 25% 30.05 in 10.0 mi WNW 8.1 mph 16.1 mph N/A   Partly Cloudy
12:55 PM 48.2 °F - 6.8 °F 19% 30.03 in 10.0 mi West 12.7 mph - N/A   Clear
1:50 PM 51.8 °F - 5.0 °F 15% 30.01 in 10.0 mi SW 23.0 mph 31.1 mph N/A   Clear
2:52 PM 53.6 °F - 6.8 °F 15% 30.00 in 10.0 mi SW 20.7 mph 26.5 mph N/A   Clear
3:52 PM 53.6 °F - 5.0 °F 14% 30.00 in 10.0 mi SW 15.0 mph 23.0 mph N/A   Clear
4:46 PM 53.6 °F - 1.4 °F 12% 30.00 in 10.0 mi WNW 13.8 mph 21.9 mph N/A   Clear
6:45 PM 50.0 °F - 6.8 °F 17% 30.02 in 10.0 mi SW 18.4 mph - N/A   Clear
7:15 PM 50.0 °F - 6.8 °F 17% 30.03 in 10.0 mi SW 20.7 mph 28.8 mph N/A   Clear
7:35 PM 50.0 °F - 8.6 °F 19% 30.04 in 10.0 mi SW 20.7 mph 24.2 mph N/A   Clear
7:55 PM 48.2 °F - 10.4 °F 22% 30.04 in 10.0 mi WSW 18.4 mph 25.3 mph N/A   Clear
8:15 PM 48.2 °F - 10.4 °F 22% 30.04 in 10.0 mi WSW 20.7 mph - N/A   Clear
8:35 PM 46.4 °F 39.5 °F 10.4 °F 23% 30.05 in 10.0 mi West 17.3 mph - N/A   Clear
8:55 PM 46.4 °F 39.0 °F 10.4 °F 23% 30.06 in 10.0 mi WSW 19.6 mph 25.3 mph N/A   Clear
9:15 PM 46.4 °F 38.7 °F 10.4 °F 23% 30.06 in 10.0 mi WSW 20.7 mph - N/A   Clear
9:35 PM 46.4 °F 39.2 °F 8.6 °F 22% 30.08 in 10.0 mi WSW 18.4 mph 25.3 mph N/A   Clear
9:55 PM 46.4 °F 40.7 °F 10.4 °F 23% 30.09 in 10.0 mi WSW 12.7 mph - N/A   Clear
10:15 PM 44.6 °F 40.2 °F 10.4 °F 25% 30.10 in 10.0 mi West 8.1 mph - N/A   Clear
10:35 PM 44.6 °F 43.1 °F 12.2 °F 27% 30.12 in 10.0 mi East 3.5 mph - N/A   Clear
10:55 PM 39.2 °F 33.6 °F 12.2 °F 33% 30.12 in 10.0 mi East 8.1 mph - N/A   Clear
11:15 PM 39.2 °F 34.2 °F 15.8 °F 39% 30.13 in 10.0 mi East 6.9 mph - N/A   Clear
11:35 PM 37.4 °F - 15.8 °F 41% 30.14 in 10.0 mi Calm Calm - N/A   Clear
11:55 PM 35.6 °F 29.9 °F 15.8 °F 44% 30.14 in 10.0 mi East 6.9 mph - N/A   Clear